Location: Bosmont
(49.7318°N, 3.8587°E)
Time: 14:40:03
(UTC+00:00)

Cosmos 1606 - Pass Details

Date: 08 February 2023
Orbit: 488 x 509 km, 82.5° (Epoch: 26 March)

Event Time Altitude Azimuth Distance (km) Brightness Sun altitude
Rises 18:33:15 0° 348° (NNW) 2,655 6.4 -16.8°
Reaches altitude 10° 18:35:24 10° 347° (NNW) 1,762 5.5 -17.2°
Maximum altitude 18:39:16 74° 262° (W) 545 2.9 -17.8°
Drops below altitude 10° 18:43:05 10° 178° (S) 1,741 5.4 -18.4°
Sets 18:45:11 0° 176° (S) 2,619 6.3 -18.8°
